Showing default

OPS 7218 (TRANSIT 16), 2807

Orbit data source: Space-Track

OPS 7218 (TRANSIT 16), 2807 is a payload satellite owned by USN NAVAIR (US) in LEO that was launched on Thu, 18 May 1967 UTC via an SCOUT A launch vehicle from the Air Force Western Test Range (AFWTR). Payload-class satellites include a variety of spacecraft equipped with specific instruments for various scientific and technological missions. These include communications satellites like Starlink; space stations such as the ISS; scientific satellites like the Hubble; Earth observation satellites from companies like Planet Labs, Umbra, and HawkEye 360; GPS; miniature CubeSats for education and research; and military/defense satellites.

Loading next visibility...
Identifier
2807, 1967-048A
Orbit
LEO
Last TLE update
14 hours ago
Origin
Manufacturer
APL
Mission
Defense Navigation
Bus & Motor
TRANSIT 5, Unknown motor
Mass
~50 kg wet, ~50 kg dry
Launch date (UTC)
1967-05-18 (58 years ago)
Launch vehicle
SCOUT A
Launch site
Air Force Western Test Range (AFWTR)
Object type
Payload
Rocket body
Debris
Shape & HBR
Oct Cyl + 4 Pan + 1 Rod, Unknown HBR
Radar Cross Section
7.565 m², Large (>1 m²)

Expand to show TLE details & history

TLE from 14 hours ago
0 OPS 7218 (TRANSIT 16)
1 02807U 67048A   25128.73469470  .00000144  00000-0  20750-3 0  9996
2 02807  89.6778   1.1482 0021400  31.3452  38.5746 13.50668099853337
Epoch: 2025-05-08T17:37Z
Definitive object data (Epoch: 2025-05-08T17:37:57.622Z)
Latitude
70.1404°
Longitude
-129.25534°
Altitude
1,069.567 km
Speed
7.33 km/s
True Right ascension
00h 08m 08s
True Declination
70° 02' 06"
Sunlit
Object was in daylight at TLE epoch
Visualization TLE readout
Latitude
35.19944°
Longitude
-129.93575°
Altitude
1,058.688 km
Speed
7.334 km/s
Apparent Right ascension
01h 44m 35s
Apparent Declination
1° 09' 12"
Sunlit
Object is in daylight
Visualization observer readout
Local Sidereal Time
15:50:06
Azimuth
42.751° NE
Elevation
-39.923°
Doppler factor
1
Orbital elements
Apogee altitude
1,082.783 km
Perigee altitude
1,050.918 km
Semi-major axis
7,444.988 km
Eccentricity
0.00214
Inclination
89.6778°
RAAN
1.1482°
Arg. of periapsis
31.3452°
True anomaly
38.72783°
Mean anomaly
38.5746°
Eccentric anomaly
38.65118°
Mean motion
3.37868 °/min
BSTAR
0.0002075
Orbital period
106.55 mins
Loading maneuver chart data...
Loading SW <> Apogee altitude chart data...
Loading historical data...
Loading historical data...
Loading historical data...
Loading historical data...
Loading historical data...
Loading historical data...
Loading historical data...

OPS 7218 (TRANSIT 16) Visibility forecast

Observer location: undefined°, undefined°

Span
Click to sort rows by Start time (UTC) header in descending order
Start Az.
Max El. time (UTC)
Max El. Az.
Max El.
End time (UTC)
End Az.
10 mins2025-05-09 14:45:03.867Z128.522° SE2025-05-09 14:50:03.867Z70.995° E25.429°2025-05-09 14:55:03.867Z20.686° NNE
11 mins2025-05-09 16:31:03.867Z208.071° SW2025-05-09 16:36:03.867Z278.322° WNW34.86°2025-05-09 16:42:03.867Z345.191° N
12 mins2025-05-10 03:40:03.867Z4.082° NNE2025-05-10 03:46:03.867Z150.195° SSE44.202°2025-05-10 03:52:03.867Z180.273° SSW
5 mins2025-05-10 05:29:03.867Z309.979° NW2025-05-10 05:31:03.867Z290.151° WNW14.833°2025-05-10 05:34:03.867Z261.447° W
|